Regional Weather Roundup
Issued by NWS State College, PA

Home | Current Version | Previous Version | Text Only | Print | Product List | Glossary On
Versions: 1 2 3 4 5 6 7 8 9 10 11 12 13 14 15 16 17 18 19 20 21 22 23 24 25 26 27 28 29 30 31 32 33 34 35 36 37 38 39 40 41 42 43 44 45 46 47 48 49 50
000
ASUS41 KCTP 070610
RWRCTP

REGIONAL WEATHER ROUNDUP
NATIONAL WEATHER SERVICE STATE COLLEGE PA
200 AM EDT TUE JUL 07 2015

Note: "fair" indicates few or no clouds below 12,000 feet with no
significant weather and/or obstructions to visibility.

* = STATION THAT DOES NOT REPORT PRECIPITATION /E.G. RAIN...SNOW...ETC/
    THUNDER OR FOG.

PAZ002>004-007>009-013>016-020>023-029>032-070700-
WESTERN PENNSYLVANIA

CITY           SKY/WX    TMP DP  RH WIND       PRES   REMARKS
ERIE           MOCLDY    71  66  84 S3        29.96S
MEADVILLE      LGT RAIN  67  65  93 S5        30.01S FOG
FRANKLIN*      MOCLDY    68  64  88 SW10      30.03S
NEW CASTLE     MOCLDY    69  68  97 CALM      30.02S
BEAVER COUNTY  NOT AVBL
BUTLER*        CLEAR     68  66  94 SW3       30.04F
PITTSBURGH INT PTCLDY    68  66  93 S5        30.03S
PITTSBURGH     CLEAR     67  63  87 S8        30.03S
INDIANA*       MOCLDY    68  68 100 SW6       30.08S
LATROBE        NOT AVBL
WASHINGTON CO* NOT AVBL
$$

PAZ004>006-010>012-017>019-024>028-033>037-041-042-045-046-049>053-070700-
CENTRAL PENNSYLVANIA

CITY           SKY/WX    TMP DP  RH WIND       PRES   REMARKS
BRADFORD       CLOUDY    67  65  93 S6        30.04F
DUBOIS         PTCLDY    69  65  86 S3        30.03S
CLEARFIELD     CLOUDY    67  66  97 CALM      30.04S FOG
JOHNSTOWN      MOCLDY    67  65  93 SW6       30.08R
ALTOONA        CLOUDY    68  66  93 CALM      30.05F
STATE COLLEGE  CLOUDY    69  68  97 W5        30.03F
WILLIAMSPORT   LGT RAIN  73  70  90 CALM      29.99F FOG
SELINSGROVE    MOCLDY    72  70  93 CALM      30.02S
FT INDIANTOWN  MOCLDY    73  70  92 CALM      30.02F
CAPITAL CITY   PTCLDY    73  69  87 CALM      30.01F
HARRISBURG     PTCLDY    71  69  93 SE5       30.00F
YORK           CLOUDY    71  70  96 CALM      30.02F
$$

PAZ038>040-043-044-047-048-054-055-060>062-067>071-070700-
EASTERN PENNSYLVANIA

CITY           SKY/WX    TMP DP  RH WIND       PRES   REMARKS
SCRANTON       MOCLDY    74  67  78 VRB5      30.04F
MOUNT POCONO   FOG       68  50  53 SE7       30.10F VSB 1/4
ALLENTOWN      CLOUDY    74  71  91 SE6       30.04F
QUAKERTOWN*    CLOUDY    73  72  94 E3        30.05F
READING        CLOUDY    74  71  91 CALM      30.02F
LANCASTER      MOCLDY    71  70  96 CALM      30.02F
COATESVILLE    MOCLDY    73  73 100 CALM      30.05F FOG
POTTSTOWN      CLOUDY    74  72  93 CALM      30.05S
BLUE BELL      MOCLDY    75  72  88 SE3       30.03F
DOYLESTOWN     CLOUDY    72  71  97 VRB5      30.04F
WILLOW GROVE   NOT AVBL
NORTH PHILA    MOCLDY    76  70  82 SE3       30.05F
PHILADELPHIA   CLOUDY    76  72  87 SE7       30.03F
$$


USA.gov is the U.S. government's official web portal to all federal, state and local government web resources and services.